OneWeb SL0163

operational
NORAD ID: 48061 Int'l Des: 2021-025 Owner: ONEWEBN Country: UK Constellation: oneweb
LEOCIRCULARPOLARONEWEB_TYPE

Über OneWeb SL0163

Beschreibung wird geladen...

Live-Position

3D-Globus wird geladen...

Nächste Überflüge

Höhenverlauf

Altitude vs Time

uPlot chart will show altitude changes over time

Zweizeiliger Elementsatz

1 48061U 21025V 25352.58233722 -.00000242 00000-0 -69748-3 0 9995
2 48061 87.8982 356.1145 0001469 86.5994 273.5304 13.13468694229977
Epoch: 18. Dez. 2025 • Age: 8 hours

Aktueller Status

Höhe 1229.1 km
Geschwindigkeit 7.24 km/s
Subsatellitenpunkt -47.50°S, 113.9°E
Startdatum 25. März 2021
Alter 4.7 years
Typ internet

Technische Details

Klassifizierung Payload
Masse 148.00 kg
Trockenmasse 140.00 kg
Gesamtmasse 148.00 kg
Länge 1.30 m
Durchmesser 1.00 m
Spannweite 5.00 m
Form Trapezoid+2 pan
Hersteller ONEWUS
Bus-Typ ARROW
Phasenstatus In Orbit
Besitzer/Staat ONEWEBN/UK

Große Konstellationen

Loading constellations...